Time,TemperatureF,DewpointF,PressureIn,WindDirection,WindDirectionDegrees,WindSpeedMPH,WindSpeedGustMPH,Humidity,HourlyPrecipIn,Conditions,Clouds,dailyrainin,SolarRadiationWatts/m^2,SoftwareType,DateUTC
2013-10-05 00:02:00,56.5,55.4,29.77,NNW,327,2.0,7.0,96,0.00,,,0.00,0.0,meteohub,2013-10-05 05:02:00,
2013-10-05 00:07:00,56.5,55.4,29.77,WNW,282,0.0,7.0,96,0.00,,,0.00,0.0,meteohub,2013-10-05 05:07:00,
2013-10-05 00:12:00,56.5,55.4,29.77,North,9,2.0,7.0,96,0.00,,,0.00,0.0,meteohub,2013-10-05 05:12:00,
2013-10-05 00:17:00,56.7,55.6,29.77,NNW,345,2.0,6.0,96,0.00,,,0.00,0.0,meteohub,2013-10-05 05:17:00,
2013-10-05 00:22:00,56.7,55.6,29.77,NW,315,2.0,6.0,96,0.00,,,0.00,0.0,meteohub,2013-10-05 05:22:00,
2013-10-05 00:27:00,56.7,55.6,29.77,West,276,0.0,6.0,96,0.00,,,0.00,0.0,meteohub,2013-10-05 05:27:00,
2013-10-05 00:32:00,56.7,55.6,29.77,NW,308,2.0,6.0,96,0.00,,,0.00,0.0,meteohub,2013-10-05 05:32:00,
2013-10-05 00:37:00,56.7,55.6,29.76,NNW,336,1.0,4.0,96,0.00,,,0.00,0.0,meteohub,2013-10-05 05:37:00,
2013-10-05 00:42:00,56.7,55.6,29.75,WNW,285,2.0,4.0,96,0.00,,,0.00,0.0,meteohub,2013-10-05 05:42:00,
2013-10-05 00:47:00,56.7,55.6,29.75,WNW,300,1.0,5.0,96,0.00,,,0.00,0.0,meteohub,2013-10-05 05:47:00,
2013-10-05 00:52:00,56.7,55.6,29.75,North,350,0.0,5.0,96,0.00,,,0.00,0.0,meteohub,2013-10-05 05:52:00,
2013-10-05 00:57:00,56.7,55.6,29.75,North,355,1.0,5.0,96,0.00,,,0.00,0.0,meteohub,2013-10-05 05:57:00,
2013-10-05 01:02:00,56.7,55.6,29.76,ENE,69,0.0,4.0,96,0.00,,,0.00,0.0,meteohub,2013-10-05 06:02:00,
2013-10-05 01:07:00,56.8,55.8,29.76,WNW,299,1.0,4.0,96,0.00,,,0.00,0.0,meteohub,2013-10-05 06:07:00,
2013-10-05 01:12:00,56.8,55.8,29.76,NNW,332,1.0,5.0,96,0.00,,,0.00,0.0,meteohub,2013-10-05 06:12:00,
2013-10-05 01:17:00,56.8,55.8,29.76,NE,38,0.0,5.0,96,0.00,,,0.00,0.0,meteohub,2013-10-05 06:17:00,
2013-10-05 01:22:00,56.8,55.8,29.75,NNW,336,4.0,5.0,96,0.00,,,0.00,0.0,meteohub,2013-10-05 06:22:00,
2013-10-05 01:27:00,56.8,55.8,29.75,NNW,333,1.0,5.0,96,0.00,,,0.00,0.0,meteohub,2013-10-05 06:27:00,
2013-10-05 01:32:00,56.8,55.8,29.75,WSW,252,0.0,5.0,96,0.00,,,0.00,0.0,meteohub,2013-10-05 06:32:00,
2013-10-05 01:37:00,56.8,55.8,29.75,NNW,336,2.0,5.0,96,0.00,,,0.00,0.0,meteohub,2013-10-05 06:37:00,
2013-10-05 01:42:00,56.8,55.8,29.75,West,279,0.0,6.0,96,0.00,,,0.00,0.0,meteohub,2013-10-05 06:42:00,
2013-10-05 01:47:00,56.8,55.8,29.75,West,266,0.0,6.0,96,0.00,,,0.00,0.0,meteohub,2013-10-05 06:47:00,
2013-10-05 01:52:00,56.8,55.8,29.75,East,91,0.0,6.0,96,0.00,,,0.00,0.0,meteohub,2013-10-05 06:52:00,
2013-10-05 01:57:00,56.8,55.8,29.75,East,81,1.0,5.0,96,0.00,,,0.00,0.0,meteohub,2013-10-05 06:57:00,
2013-10-05 02:02:00,56.8,55.8,29.75,NE,56,0.0,5.0,96,0.00,,,0.00,0.0,meteohub,2013-10-05 07:02:00,
2013-10-05 02:07:00,56.8,55.8,29.75,NNW,327,1.0,3.0,96,0.00,,,0.00,0.0,meteohub,2013-10-05 07:07:00,
2013-10-05 02:12:00,56.8,55.8,29.74,NNW,334,0.0,4.0,96,0.00,,,0.00,0.0,meteohub,2013-10-05 07:12:00,
2013-10-05 02:17:00,56.8,55.8,29.74,NNW,348,0.0,4.0,96,0.00,,,0.00,0.0,meteohub,2013-10-05 07:17:00,
2013-10-05 02:22:00,56.8,55.8,29.74,West,274,0.0,4.0,96,0.00,,,0.00,0.0,meteohub,2013-10-05 07:22:00,
2013-10-05 02:27:00,56.8,55.8,29.73,ENE,59,0.0,4.0,96,0.00,,,0.00,0.0,meteohub,2013-10-05 07:27:00,
2013-10-05 02:32:00,56.8,55.8,29.73,NW,319,2.0,4.0,96,0.00,,,0.00,0.0,meteohub,2013-10-05 07:32:00,
2013-10-05 02:37:00,56.8,55.9,29.73,WNW,285,0.0,4.0,97,0.00,,,0.00,0.0,meteohub,2013-10-05 07:37:00,
2013-10-05 02:42:00,57.0,56.1,29.72,WNW,285,5.0,6.0,97,0.00,,,0.00,0.0,meteohub,2013-10-05 07:42:00,
2013-10-05 02:47:00,57.0,56.1,29.72,SSE,154,0.0,9.0,97,0.00,,,0.00,0.0,meteohub,2013-10-05 07:47:00,
2013-10-05 02:52:00,57.0,56.1,29.72,NW,310,3.0,9.0,97,0.00,,,0.00,0.0,meteohub,2013-10-05 07:52:00,
2013-10-05 02:57:00,57.2,56.3,29.71,South,182,2.0,9.0,97,0.00,,,0.00,0.0,meteohub,2013-10-05 07:57:00,
2013-10-05 03:02:00,57.2,56.3,29.71,SSE,153,0.0,8.0,97,0.00,,,0.00,0.0,meteohub,2013-10-05 08:02:00,
2013-10-05 03:07:00,57.4,56.5,29.71,ESE,121,0.0,5.0,97,0.00,,,0.00,0.0,meteohub,2013-10-05 08:07:00,
2013-10-05 03:12:00,57.4,56.5,29.71,WNW,294,0.0,7.0,97,0.00,,,0.00,0.0,meteohub,2013-10-05 08:12:00,
2013-10-05 03:17:00,57.4,56.5,29.71,North,5,3.0,7.0,97,0.00,,,0.00,0.0,meteohub,2013-10-05 08:17:00,
2013-10-05 03:22:00,57.4,56.5,29.71,NW,325,2.0,7.0,97,0.00,,,0.00,0.0,meteohub,2013-10-05 08:22:00,
2013-10-05 03:27:00,57.4,56.5,29.72,NW,314,1.0,6.0,97,0.00,,,0.00,0.0,meteohub,2013-10-05 08:27:00,
2013-10-05 03:32:00,57.6,56.7,29.72,NW,310,1.0,7.0,97,0.00,,,0.00,0.0,meteohub,2013-10-05 08:32:00,
2013-10-05 03:37:00,57.6,56.7,29.71,WNW,299,0.0,7.0,97,0.00,,,0.00,0.0,meteohub,2013-10-05 08:37:00,
2013-10-05 03:42:00,57.6,56.7,29.71,NNE,12,2.0,7.0,97,0.00,,,0.00,0.0,meteohub,2013-10-05 08:42:00,
2013-10-05 03:47:00,57.7,56.8,29.71,WNW,299,0.0,6.0,97,0.00,,,0.00,0.0,meteohub,2013-10-05 08:47:00,
2013-10-05 03:52:00,57.7,56.8,29.72,WNW,301,1.0,6.0,97,0.00,,,0.00,0.0,meteohub,2013-10-05 08:52:00,
2013-10-05 03:57:00,57.7,56.8,29.71,NNW,338,0.0,7.0,97,0.00,,,0.00,0.0,meteohub,2013-10-05 08:57:00,
2013-10-05 04:02:00,57.9,57.0,29.71,West,273,3.0,7.0,97,0.00,,,0.00,0.0,meteohub,2013-10-05 09:02:00,
2013-10-05 04:07:00,57.9,57.0,29.71,NNW,345,2.0,7.0,97,0.00,,,0.00,0.0,meteohub,2013-10-05 09:07:00,
2013-10-05 04:12:00,57.9,57.0,29.71,NNW,337,2.0,7.0,97,0.00,,,0.00,0.0,meteohub,2013-10-05 09:12:00,
2013-10-05 04:17:00,57.9,57.0,29.70,SE,128,0.0,5.0,97,0.00,,,0.00,0.0,meteohub,2013-10-05 09:17:00,
2013-10-05 04:22:00,57.9,57.0,29.71,West,275,0.0,5.0,97,0.00,,,0.00,0.0,meteohub,2013-10-05 09:22:00,
2013-10-05 04:27:00,57.9,57.0,29.71,West,281,1.0,4.0,97,0.00,,,0.00,0.0,meteohub,2013-10-05 09:27:00,
2013-10-05 04:32:00,58.1,57.2,29.73,WSW,240,0.0,4.0,97,0.00,,,0.00,0.0,meteohub,2013-10-05 09:32:00,
2013-10-05 04:37:00,57.6,56.5,29.73,SSW,211,0.0,4.0,96,0.00,,,0.00,0.0,meteohub,2013-10-05 09:37:00,
2013-10-05 04:42:00,56.7,55.2,29.74,WSW,253,0.0,4.0,95,0.00,,,0.00,0.0,meteohub,2013-10-05 09:42:00,
2013-10-05 04:47:00,55.6,53.6,29.74,SW,235,0.0,6.0,93,0.00,,,0.00,0.0,meteohub,2013-10-05 09:47:00,
2013-10-05 04:52:00,54.9,52.9,29.74,SW,220,0.0,6.0,93,0.00,,,0.00,0.0,meteohub,2013-10-05 09:52:00,
2013-10-05 04:57:00,54.1,51.8,29.73,NW,318,0.0,6.0,92,0.00,,,0.00,0.0,meteohub,2013-10-05 09:57:00,
2013-10-05 05:01:00,53.8,51.4,29.73,WSW,242,0.0,4.0,92,0.00,,,0.00,0.0,meteohub,2013-10-05 10:01:00,
2013-10-05 05:06:00,53.4,51.1,29.73,SSW,209,0.0,3.0,92,0.00,,,0.00,0.0,meteohub,2013-10-05 10:06:00,
2013-10-05 05:12:00,52.9,50.5,29.74,East,92,0.0,4.0,92,0.00,,,0.00,0.0,meteohub,2013-10-05 10:12:00,
2013-10-05 05:17:00,52.3,50.0,29.73,South,184,0.0,4.0,92,0.00,,,0.00,0.0,meteohub,2013-10-05 10:17:00,
2013-10-05 05:22:00,52.0,49.5,29.74,NNW,331,0.0,8.0,91,0.00,,,0.00,0.0,meteohub,2013-10-05 10:22:00,
2013-10-05 05:27:00,51.4,48.9,29.74,South,189,0.0,8.0,91,0.00,,,0.00,0.0,meteohub,2013-10-05 10:27:00,
2013-10-05 05:32:00,51.1,48.2,29.74,WSW,257,0.0,8.0,90,0.00,,,0.00,0.0,meteohub,2013-10-05 10:32:00,
2013-10-05 05:37:00,50.7,47.8,29.75,WNW,286,0.0,2.0,90,0.00,,,0.00,0.0,meteohub,2013-10-05 10:37:00,
2013-10-05 05:42:00,50.2,47.3,29.75,WSW,238,0.0,2.0,90,0.00,,,0.00,0.0,meteohub,2013-10-05 10:42:00,
2013-10-05 05:47:00,49.8,46.8,29.75,South,186,0.0,3.0,89,0.00,,,0.00,0.0,meteohub,2013-10-05 10:47:00,
2013-10-05 05:51:00,49.1,46.0,29.75,WNW,294,2.0,3.0,89,0.00,,,0.00,0.0,meteohub,2013-10-05 10:51:00,
2013-10-05 05:57:00,48.7,45.7,29.76,SSW,202,0.0,5.0,89,0.00,,,0.00,0.0,meteohub,2013-10-05 10:57:00,
2013-10-05 06:02:00,48.4,45.3,29.76,SSW,205,0.0,5.0,89,0.00,,,0.00,0.0,meteohub,2013-10-05 11:02:00,
2013-10-05 06:07:00,48.0,45.0,29.77,South,180,0.0,3.0,89,0.00,,,0.00,0.0,meteohub,2013-10-05 11:07:00,
2013-10-05 06:12:00,47.7,44.6,29.77,WNW,302,0.0,3.0,89,0.00,,,0.00,0.0,meteohub,2013-10-05 11:12:00,
2013-10-05 06:17:00,47.1,44.1,29.77,WNW,300,2.0,3.0,89,0.00,,,0.00,0.0,meteohub,2013-10-05 11:17:00,
2013-10-05 06:22:00,46.8,43.7,29.78,NW,323,1.0,3.0,89,0.00,,,0.00,0.0,meteohub,2013-10-05 11:22:00,
2013-10-05 06:27:00,46.2,42.8,29.78,West,271,1.0,5.0,88,0.00,,,0.00,0.0,meteohub,2013-10-05 11:27:00,
2013-10-05 06:32:00,45.9,42.3,29.78,SW,230,1.0,5.0,87,0.00,,,0.00,0.0,meteohub,2013-10-05 11:32:00,
2013-10-05 06:37:00,45.5,42.1,29.78,WSW,244,0.0,5.0,88,0.00,,,0.00,0.0,meteohub,2013-10-05 11:37:00,
2013-10-05 06:42:00,45.3,41.9,29.78,SW,236,0.0,4.0,88,0.00,,,0.00,0.0,meteohub,2013-10-05 11:42:00,
2013-10-05 06:47:00,45.1,42.1,29.78,West,260,0.0,4.0,89,0.00,,,0.00,0.0,meteohub,2013-10-05 11:47:00,
2013-10-05 06:52:00,45.0,41.9,29.78,West,260,0.0,3.0,89,0.00,,,0.00,0.0,meteohub,2013-10-05 11:52:00,
2013-10-05 06:57:00,44.8,41.7,29.78,West,260,0.0,1.0,89,0.00,,,0.00,0.0,meteohub,2013-10-05 11:57:00,
2013-10-05 07:02:00,44.4,41.4,29.78,WSW,254,0.0,4.0,89,0.00,,,0.00,0.0,meteohub,2013-10-05 12:02:00,
2013-10-05 07:07:00,44.4,41.4,29.78,WSW,254,0.0,4.0,89,0.00,,,0.00,0.0,meteohub,2013-10-05 12:07:00,
2013-10-05 07:12:00,44.1,41.0,29.78,SSW,198,0.0,4.0,89,0.00,,,0.00,0.0,meteohub,2013-10-05 12:12:00,
2013-10-05 07:17:00,44.1,41.0,29.79,WNW,294,0.0,2.0,89,0.00,,,0.00,0.0,meteohub,2013-10-05 12:17:00,
2013-10-05 07:22:00,43.7,40.6,29.79,NW,317,0.0,2.0,89,0.00,,,0.00,0.0,meteohub,2013-10-05 12:22:00,
2013-10-05 07:27:00,43.5,40.5,29.79,WNW,292,0.0,1.0,89,0.00,,,0.00,0.0,meteohub,2013-10-05 12:27:00,
2013-10-05 07:32:00,43.3,40.3,29.79,WNW,302,0.0,3.0,89,0.00,,,0.00,5.0,meteohub,2013-10-05 12:32:00,
2013-10-05 07:37:00,43.2,40.1,29.79,WNW,302,0.0,3.0,89,0.00,,,0.00,9.0,meteohub,2013-10-05 12:37:00,
2013-10-05 07:42:00,43.0,39.9,29.79,WNW,302,0.0,3.0,89,0.00,,,0.00,12.0,meteohub,2013-10-05 12:42:00,
2013-10-05 07:47:00,42.6,39.9,29.80,ENE,60,2.0,0.0,90,0.00,,,0.00,11.0,meteohub,2013-10-05 12:47:00,
2013-10-05 07:52:00,42.4,39.4,29.80,ENE,58,0.0,4.0,89,0.00,,,0.00,11.0,meteohub,2013-10-05 12:52:00,
2013-10-05 07:57:00,42.4,39.7,29.80,WNW,290,0.0,4.0,90,0.00,,,0.00,14.0,meteohub,2013-10-05 12:57:00,
2013-10-05 08:02:00,42.3,39.6,29.80,West,267,0.0,4.0,90,0.00,,,0.00,18.0,meteohub,2013-10-05 13:02:00,
2013-10-05 08:07:00,42.1,39.4,29.80,East,94,1.0,3.0,90,0.00,,,0.00,23.0,meteohub,2013-10-05 13:07:00,
2013-10-05 08:12:00,42.1,39.4,29.79,East,95,1.0,3.0,90,0.00,,,0.00,28.0,meteohub,2013-10-05 13:12:00,
2013-10-05 08:17:00,42.1,39.4,29.79,NNE,15,0.0,2.0,90,0.00,,,0.00,35.0,meteohub,2013-10-05 13:17:00,
2013-10-05 08:22:00,42.1,39.4,29.80,North,9,0.0,2.0,90,0.00,,,0.00,33.0,meteohub,2013-10-05 13:22:00,
2013-10-05 08:27:00,42.1,39.4,29.79,North,9,0.0,2.0,90,0.00,,,0.00,37.0,meteohub,2013-10-05 13:27:00,
2013-10-05 08:32:00,42.1,39.6,29.79,NNW,344,0.0,2.0,91,0.00,,,0.00,39.0,meteohub,2013-10-05 13:32:00,
2013-10-05 08:37:00,42.1,39.4,29.80,WNW,284,0.0,4.0,90,0.00,,,0.00,40.0,meteohub,2013-10-05 13:37:00,
2013-10-05 08:42:00,42.1,39.4,29.80,WNW,285,0.0,4.0,90,0.00,,,0.00,49.0,meteohub,2013-10-05 13:42:00,
2013-10-05 08:47:00,42.1,39.0,29.80,ENE,78,0.0,4.0,89,0.00,,,0.00,51.0,meteohub,2013-10-05 13:47:00,
2013-10-05 08:52:00,42.3,39.2,29.80,NNW,329,1.0,3.0,89,0.00,,,0.00,65.0,meteohub,2013-10-05 13:52:00,
2013-10-05 08:57:00,42.3,39.2,29.80,WNW,290,0.0,4.0,89,0.00,,,0.00,69.0,meteohub,2013-10-05 13:57:00,
2013-10-05 09:02:00,42.4,39.4,29.80,NW,317,0.0,4.0,89,0.00,,,0.00,74.0,meteohub,2013-10-05 14:02:00,
2013-10-05 09:07:00,42.4,39.2,29.80,North,355,0.0,4.0,88,0.00,,,0.00,74.0,meteohub,2013-10-05 14:07:00,
2013-10-05 09:12:00,42.4,39.2,29.80,NNW,331,1.0,4.0,88,0.00,,,0.00,86.0,meteohub,2013-10-05 14:12:00,
2013-10-05 09:17:00,42.6,39.4,29.80,NE,40,2.0,5.0,88,0.00,,,0.00,90.0,meteohub,2013-10-05 14:17:00,
2013-10-05 09:22:00,42.6,39.4,29.80,NNW,333,0.0,5.0,88,0.00,,,0.00,35.0,meteohub,2013-10-05 14:22:00,
2013-10-05 09:27:00,43.0,39.9,29.81,West,277,0.0,5.0,89,0.00,,,0.00,26.0,meteohub,2013-10-05 14:27:00,
2013-10-05 09:32:00,42.8,39.2,29.80,ENE,58,1.0,5.0,87,0.00,,,0.00,40.0,meteohub,2013-10-05 14:32:00,
2013-10-05 09:37:00,42.8,39.2,29.80,NNW,328,0.0,5.0,87,0.00,,,0.00,39.0,meteohub,2013-10-05 14:37:00,
2013-10-05 09:42:00,42.8,39.6,29.80,West,271,1.0,5.0,88,0.00,,,0.00,35.0,meteohub,2013-10-05 14:42:00,
2013-10-05 09:47:00,43.0,39.7,29.80,SSW,203,1.0,5.0,88,0.00,,,0.00,40.0,meteohub,2013-10-05 14:47:00,
2013-10-05 09:52:00,43.0,39.4,29.80,ENE,66,8.0,8.0,87,0.00,,,0.00,40.0,meteohub,2013-10-05 14:52:00,
2013-10-05 09:57:00,43.0,39.0,29.80,WSW,248,3.0,8.0,86,0.00,,,0.00,46.0,meteohub,2013-10-05 14:57:00,
2013-10-05 10:02:00,43.2,38.7,29.79,NNE,29,3.0,8.0,84,0.00,,,0.00,44.0,meteohub,2013-10-05 15:02:00,
2013-10-05 10:07:00,43.3,39.4,29.79,NE,56,1.0,8.0,86,0.00,,,0.00,56.0,meteohub,2013-10-05 15:07:00,
2013-10-05 10:12:00,43.3,39.4,29.80,ENE,67,1.0,6.0,86,0.00,,,0.00,86.0,meteohub,2013-10-05 15:12:00,
2013-10-05 10:17:00,43.5,39.0,29.80,North,5,1.0,5.0,84,0.00,,,0.00,53.0,meteohub,2013-10-05 15:17:00,
2013-10-05 10:22:00,44.1,39.9,29.80,SW,232,0.0,9.0,85,0.00,,,0.00,58.0,meteohub,2013-10-05 15:22:00,
2013-10-05 10:27:00,44.4,39.2,29.80,WNW,296,0.0,9.0,82,0.00,,,0.00,98.0,meteohub,2013-10-05 15:27:00,
2013-10-05 10:32:00,44.4,39.6,29.79,WNW,298,0.0,9.0,83,0.00,,,0.00,69.0,meteohub,2013-10-05 15:32:00,
2013-10-05 10:37:00,44.4,39.6,29.80,NNW,328,2.0,7.0,83,0.00,,,0.00,142.0,meteohub,2013-10-05 15:37:00,
2013-10-05 10:42:00,45.0,41.4,29.81,South,173,2.0,7.0,87,0.00,,,0.00,114.0,meteohub,2013-10-05 15:42:00,
2013-10-05 10:47:00,45.0,40.6,29.80,West,265,1.0,6.0,85,0.00,,,0.00,171.0,meteohub,2013-10-05 15:47:00,
2013-10-05 10:52:00,45.1,40.3,29.80,SW,232,1.0,6.0,83,0.00,,,0.00,149.0,meteohub,2013-10-05 15:52:00,
2013-10-05 10:57:00,45.3,40.5,29.80,NW,306,1.0,6.0,83,0.00,,,0.00,167.0,meteohub,2013-10-05 15:57:00,
2013-10-05 11:02:00,45.5,40.6,29.80,WNW,294,0.0,5.0,83,0.00,,,0.00,163.0,meteohub,2013-10-05 16:02:00,
2013-10-05 11:07:00,46.0,41.7,29.80,WNW,282,1.0,5.0,85,0.00,,,0.00,132.0,meteohub,2013-10-05 16:07:00,
2013-10-05 11:12:00,46.0,40.8,29.80,WNW,292,0.0,5.0,82,0.00,,,0.00,206.0,meteohub,2013-10-05 16:12:00,
2013-10-05 11:17:00,46.4,40.6,29.80,North,5,1.0,4.0,80,0.00,,,0.00,202.0,meteohub,2013-10-05 16:17:00,
2013-10-05 11:22:00,47.1,42.8,29.80,SW,236,3.0,5.0,85,0.00,,,0.00,287.0,meteohub,2013-10-05 16:22:00,
2013-10-05 11:27:00,46.8,41.0,29.80,NNW,340,0.0,5.0,80,0.00,,,0.00,202.0,meteohub,2013-10-05 16:27:00,
2013-10-05 11:32:00,46.6,41.0,29.79,NNW,344,0.0,5.0,81,0.00,,,0.00,211.0,meteohub,2013-10-05 16:32:00,
2013-10-05 11:37:00,46.9,41.7,29.79,West,269,2.0,5.0,82,0.00,,,0.00,232.0,meteohub,2013-10-05 16:37:00,
2013-10-05 11:42:00,46.9,41.2,29.79,East,96,0.0,3.0,80,0.00,,,0.00,134.0,meteohub,2013-10-05 16:42:00,
2013-10-05 11:47:00,46.9,42.1,29.79,North,0,2.0,6.0,83,0.00,,,0.00,420.0,meteohub,2013-10-05 16:47:00,
2013-10-05 11:52:00,47.7,41.7,29.79,North,355,3.0,6.0,80,0.00,,,0.00,211.0,meteohub,2013-10-05 16:52:00,
2013-10-05 11:57:00,47.8,41.0,29.79,NE,34,4.0,4.0,77,0.00,,,0.00,271.0,meteohub,2013-10-05 16:57:00,
2013-10-05 12:02:00,47.7,41.5,29.78,West,281,1.0,7.0,79,0.00,,,0.00,209.0,meteohub,2013-10-05 17:02:00,
2013-10-05 12:07:00,48.0,40.8,29.78,ESE,104,4.0,7.0,76,0.00,,,0.00,204.0,meteohub,2013-10-05 17:07:00,
2013-10-05 12:12:00,47.7,40.1,29.78,WSW,250,0.0,8.0,75,0.00,,,0.00,320.0,meteohub,2013-10-05 17:12:00,
2013-10-05 12:17:00,48.0,40.5,29.78,WNW,292,2.0,8.0,75,0.00,,,0.00,204.0,meteohub,2013-10-05 17:17:00,
2013-10-05 12:22:00,48.0,40.5,29.78,NW,324,2.0,8.0,75,0.00,,,0.00,209.0,meteohub,2013-10-05 17:22:00,
2013-10-05 12:27:00,48.4,40.8,29.78,NNW,333,3.0,8.0,75,0.00,,,0.00,369.0,meteohub,2013-10-05 17:27:00,
2013-10-05 12:32:00,49.3,42.1,29.78,NNE,20,3.0,8.0,76,0.00,,,0.00,197.0,meteohub,2013-10-05 17:32:00,
2013-10-05 12:37:00,48.7,40.1,29.78,SSW,201,2.0,8.0,72,0.00,,,0.00,253.0,meteohub,2013-10-05 17:37:00,
2013-10-05 12:42:00,49.6,42.4,29.79,NW,318,0.0,8.0,76,0.00,,,0.00,114.0,meteohub,2013-10-05 17:42:00,
2013-10-05 12:47:00,49.3,41.4,29.79,NW,319,1.0,6.0,74,0.00,,,0.00,135.0,meteohub,2013-10-05 17:47:00,
2013-10-05 12:52:00,50.2,42.3,29.78,North,0,1.0,6.0,74,0.00,,,0.00,118.0,meteohub,2013-10-05 17:52:00,
2013-10-05 12:57:00,50.4,41.4,29.78,NW,306,5.0,10.0,71,0.00,,,0.00,731.0,meteohub,2013-10-05 17:57:00,
2013-10-05 13:02:00,50.4,41.4,29.78,North,0,7.0,10.0,71,0.00,,,0.00,134.0,meteohub,2013-10-05 18:02:00,
2013-10-05 13:07:00,50.5,42.6,29.78,NNW,343,4.0,10.0,74,0.00,,,0.00,190.0,meteohub,2013-10-05 18:07:00,
2013-10-05 13:12:00,50.5,41.2,29.78,ENE,73,0.0,8.0,70,0.00,,,0.00,327.0,meteohub,2013-10-05 18:12:00,
2013-10-05 13:17:00,51.4,44.1,29.78,NNW,338,2.0,8.0,76,0.00,,,0.00,274.0,meteohub,2013-10-05 18:17:00,
2013-10-05 13:22:00,51.3,41.4,29.78,WSW,254,0.0,8.0,69,0.00,,,0.00,462.0,meteohub,2013-10-05 18:22:00,
2013-10-05 13:27:00,51.3,41.9,29.78,West,279,2.0,8.0,70,0.00,,,0.00,239.0,meteohub,2013-10-05 18:27:00,
2013-10-05 13:32:00,50.9,42.3,29.78,WNW,282,0.0,7.0,72,0.00,,,0.00,181.0,meteohub,2013-10-05 18:32:00,
2013-10-05 13:37:00,51.3,42.3,29.78,WSW,250,0.0,7.0,71,0.00,,,0.00,283.0,meteohub,2013-10-05 18:37:00,
2013-10-05 13:42:00,51.4,41.2,29.78,West,279,0.0,9.0,68,0.00,,,0.00,265.0,meteohub,2013-10-05 18:42:00,
2013-10-05 13:47:00,52.7,43.5,29.77,NNE,16,0.0,9.0,71,0.00,,,0.00,218.0,meteohub,2013-10-05 18:47:00,
2013-10-05 13:52:00,52.9,43.0,29.77,WNW,288,0.0,7.0,69,0.00,,,0.00,218.0,meteohub,2013-10-05 18:52:00,
2013-10-05 13:57:00,52.5,43.3,29.77,West,263,0.0,7.0,71,0.00,,,0.00,257.0,meteohub,2013-10-05 18:57:00,
2013-10-05 14:02:00,52.3,42.8,29.77,WNW,294,1.0,7.0,70,0.00,,,0.00,151.0,meteohub,2013-10-05 19:02:00,
2013-10-05 14:07:00,52.0,43.2,29.77,NW,309,2.0,5.0,72,0.00,,,0.00,209.0,meteohub,2013-10-05 19:07:00,
2013-10-05 14:12:00,52.3,42.1,29.77,NW,315,2.0,5.0,68,0.00,,,0.00,271.0,meteohub,2013-10-05 19:12:00,
2013-10-05 14:17:00,53.1,41.5,29.77,WNW,297,3.0,5.0,65,0.00,,,0.00,214.0,meteohub,2013-10-05 19:17:00,
2013-10-05 14:22:00,52.7,43.9,29.77,SSW,208,1.0,8.0,72,0.00,,,0.00,230.0,meteohub,2013-10-05 19:22:00,
2013-10-05 14:27:00,52.2,42.6,29.77,WNW,295,0.0,8.0,70,0.00,,,0.00,288.0,meteohub,2013-10-05 19:27:00,
2013-10-05 14:32:00,52.0,43.2,29.77,NW,315,1.0,8.0,72,0.00,,,0.00,155.0,meteohub,2013-10-05 19:32:00,
2013-10-05 14:37:00,51.6,41.7,29.77,West,276,0.0,4.0,69,0.00,,,0.00,105.0,meteohub,2013-10-05 19:37:00,
2013-10-05 14:42:00,51.3,41.4,29.77,West,265,0.0,4.0,69,0.00,,,0.00,151.0,meteohub,2013-10-05 19:42:00,
2013-10-05 14:47:00,51.3,41.0,29.77,West,261,0.0,7.0,68,0.00,,,0.00,151.0,meteohub,2013-10-05 19:47:00,
2013-10-05 14:52:00,51.6,41.7,29.77,WSW,244,0.0,7.0,69,0.00,,,0.00,241.0,meteohub,2013-10-05 19:52:00,
2013-10-05 14:57:00,52.0,42.8,29.77,NNW,342,1.0,7.0,71,0.00,,,0.00,239.0,meteohub,2013-10-05 19:57:00,
2013-10-05 15:02:00,52.2,44.4,29.77,NNE,27,0.0,6.0,75,0.00,,,0.00,241.0,meteohub,2013-10-05 20:02:00,
2013-10-05 15:07:00,52.3,42.8,29.77,West,279,2.0,6.0,70,0.00,,,0.00,299.0,meteohub,2013-10-05 20:07:00,
2013-10-05 15:12:00,52.5,43.0,29.76,WNW,300,0.0,6.0,70,0.00,,,0.00,216.0,meteohub,2013-10-05 20:12:00,
2013-10-05 15:17:00,52.5,44.1,29.76,South,177,0.0,6.0,73,0.00,,,0.00,239.0,meteohub,2013-10-05 20:17:00,
2013-10-05 15:22:00,52.2,41.9,29.76,NW,325,2.0,6.0,68,0.00,,,0.00,179.0,meteohub,2013-10-05 20:22:00,
2013-10-05 15:27:00,52.2,45.5,29.76,NW,325,0.0,4.0,78,0.00,,,0.00,95.0,meteohub,2013-10-05 20:27:00,
2013-10-05 15:32:00,51.6,43.5,29.76,West,278,0.0,4.0,74,0.00,,,0.00,125.0,meteohub,2013-10-05 20:32:00,
2013-10-05 15:37:00,51.4,42.4,29.76,West,277,1.0,3.0,71,0.00,,,0.00,104.0,meteohub,2013-10-05 20:37:00,
2013-10-05 15:42:00,51.3,43.9,29.76,West,278,0.0,2.0,76,0.00,,,0.00,95.0,meteohub,2013-10-05 20:42:00,
2013-10-05 15:47:00,50.9,43.5,29.77,West,278,0.0,2.0,76,0.00,,,0.00,100.0,meteohub,2013-10-05 20:47:00,
2013-10-05 15:52:00,50.7,42.4,29.77,West,278,0.0,2.0,73,0.00,,,0.00,72.0,meteohub,2013-10-05 20:52:00,
2013-10-05 15:57:00,50.5,43.3,29.76,West,278,0.0,2.0,76,0.00,,,0.00,171.0,meteohub,2013-10-05 20:57:00,
2013-10-05 16:02:00,50.9,42.6,29.76,West,278,1.0,2.0,73,0.00,,,0.00,172.0,meteohub,2013-10-05 21:02:00,
2013-10-05 16:07:00,50.9,41.9,29.77,West,278,0.0,2.0,71,0.00,,,0.00,104.0,meteohub,2013-10-05 21:07:00,
2013-10-05 16:12:00,50.7,43.2,29.77,West,278,0.0,2.0,75,0.00,,,0.00,149.0,meteohub,2013-10-05 21:12:00,
2013-10-05 16:17:00,51.1,44.4,29.77,West,278,0.0,2.0,78,0.00,,,0.00,149.0,meteohub,2013-10-05 21:17:00,
2013-10-05 16:22:00,51.1,42.8,29.77,West,278,0.0,1.0,73,0.00,,,0.00,111.0,meteohub,2013-10-05 21:22:00,
2013-10-05 16:27:00,51.1,43.7,29.77,West,278,0.0,1.0,76,0.00,,,0.00,88.0,meteohub,2013-10-05 21:27:00,
2013-10-05 16:32:00,50.7,43.7,29.77,West,278,0.0,1.0,77,0.00,,,0.00,53.0,meteohub,2013-10-05 21:32:00,
2013-10-05 16:37:00,50.5,44.6,29.77,West,278,0.0,1.0,80,0.00,,,0.00,62.0,meteohub,2013-10-05 21:37:00,
2013-10-05 16:42:00,50.4,43.3,29.77,West,278,0.0,1.0,77,0.00,,,0.00,111.0,meteohub,2013-10-05 21:42:00,
2013-10-05 16:47:00,50.4,43.2,29.77,West,278,0.0,0.0,76,0.00,,,0.00,100.0,meteohub,2013-10-05 21:47:00,
2013-10-05 16:52:00,50.4,41.7,29.77,West,278,0.0,0.0,72,0.00,,,0.00,77.0,meteohub,2013-10-05 21:52:00,
2013-10-05 16:57:00,50.5,41.9,29.77,West,278,0.0,0.0,72,0.00,,,0.00,60.0,meteohub,2013-10-05 21:57:00,
2013-10-05 17:02:00,50.4,43.2,29.77,West,278,0.0,0.0,76,0.00,,,0.00,54.0,meteohub,2013-10-05 22:02:00,
2013-10-05 17:07:00,49.8,43.0,29.77,West,278,0.0,0.0,77,0.00,,,0.00,49.0,meteohub,2013-10-05 22:07:00,
2013-10-05 17:12:00,49.6,43.0,29.76,West,278,0.0,0.0,78,0.00,,,0.00,47.0,meteohub,2013-10-05 22:12:00,
2013-10-05 17:17:00,49.5,44.6,29.76,West,278,0.0,0.0,83,0.00,,,0.00,81.0,meteohub,2013-10-05 22:17:00,
2013-10-05 17:22:00,49.6,44.1,29.77,West,278,0.0,0.0,81,0.00,,,0.00,76.0,meteohub,2013-10-05 22:22:00,
2013-10-05 17:27:00,49.8,43.5,29.76,West,278,0.0,0.0,79,0.00,,,0.00,58.0,meteohub,2013-10-05 22:27:00,
2013-10-05 17:32:00,49.6,43.7,29.77,West,278,0.0,0.0,80,0.00,,,0.00,74.0,meteohub,2013-10-05 22:32:00,
2013-10-05 17:37:00,49.6,44.1,29.77,West,278,0.0,0.0,81,0.00,,,0.00,37.0,meteohub,2013-10-05 22:37:00,
2013-10-05 17:42:00,49.6,43.0,29.77,West,278,0.0,0.0,78,0.00,,,0.00,30.0,meteohub,2013-10-05 22:42:00,
2013-10-05 17:47:00,49.5,43.2,29.76,West,278,0.0,0.0,79,0.00,,,0.00,28.0,meteohub,2013-10-05 22:47:00,
2013-10-05 17:52:00,49.1,43.5,29.77,West,278,0.0,0.0,81,0.00,,,0.00,60.0,meteohub,2013-10-05 22:52:00,
2013-10-05 17:57:00,48.9,42.6,29.76,West,278,0.0,0.0,79,0.00,,,0.00,51.0,meteohub,2013-10-05 22:57:00,
2013-10-05 18:02:00,49.1,43.2,29.76,West,278,0.0,0.0,80,0.00,,,0.00,42.0,meteohub,2013-10-05 23:02:00,
2013-10-05 18:07:00,49.3,42.8,29.77,West,278,0.0,0.0,78,0.00,,,0.00,32.0,meteohub,2013-10-05 23:07:00,
2013-10-05 18:12:00,49.1,43.5,29.78,West,278,0.0,0.0,81,0.00,,,0.00,32.0,meteohub,2013-10-05 23:12:00,
2013-10-05 18:17:00,48.9,43.3,29.78,West,278,0.0,0.0,81,0.00,,,0.00,18.0,meteohub,2013-10-05 23:17:00,
2013-10-05 18:22:00,48.9,44.1,29.78,West,278,0.0,0.0,83,0.00,,,0.00,25.0,meteohub,2013-10-05 23:22:00,
2013-10-05 18:27:00,49.1,43.5,29.77,West,278,0.0,0.0,81,0.00,,,0.00,25.0,meteohub,2013-10-05 23:27:00,
2013-10-05 18:32:00,49.1,42.8,29.77,West,278,0.0,0.0,79,0.00,,,0.00,19.0,meteohub,2013-10-05 23:32:00,
2013-10-05 18:37:00,49.1,43.9,29.77,West,278,0.0,0.0,82,0.00,,,0.00,18.0,meteohub,2013-10-05 23:37:00,
2013-10-05 18:42:00,48.9,42.6,29.76,West,278,0.0,0.0,79,0.00,,,0.00,12.0,meteohub,2013-10-05 23:42:00,
2013-10-05 18:47:00,48.6,43.0,29.77,West,278,0.0,0.0,81,0.00,,,0.00,7.0,meteohub,2013-10-05 23:47:00,
2013-10-05 18:52:00,48.0,43.2,29.77,West,278,0.0,0.0,83,0.00,,,0.00,5.0,meteohub,2013-10-05 23:52:00,
2013-10-05 18:57:00,47.7,43.3,29.77,West,278,0.0,0.0,85,0.00,,,0.00,0.0,meteohub,2013-10-05 23:57:00,
2013-10-05 19:02:00,47.5,43.2,29.77,West,278,0.0,0.0,85,0.00,,,0.00,0.0,meteohub,2013-10-06 00:02:00,
2013-10-05 19:07:00,47.3,42.4,29.77,West,278,0.0,0.0,83,0.00,,,0.00,0.0,meteohub,2013-10-06 00:07:00,
2013-10-05 19:12:00,47.1,42.6,29.77,West,278,0.0,0.0,84,0.00,,,0.00,0.0,meteohub,2013-10-06 00:12:00,
2013-10-05 19:17:00,46.9,42.4,29.77,West,278,0.0,0.0,84,0.00,,,0.00,0.0,meteohub,2013-10-06 00:17:00,
2013-10-05 19:22:00,46.9,42.1,29.78,NW,314,0.0,1.0,83,0.00,,,0.00,0.0,meteohub,2013-10-06 00:22:00,
2013-10-05 19:27:00,46.9,42.1,29.77,NW,314,0.0,1.0,83,0.00,,,0.00,0.0,meteohub,2013-10-06 00:27:00,
2013-10-05 19:32:00,46.9,42.4,29.78,NW,314,0.0,1.0,84,0.00,,,0.00,0.0,meteohub,2013-10-06 00:32:00,
2013-10-05 19:37:00,47.1,42.3,29.78,NE,55,0.0,1.0,83,0.00,,,0.00,0.0,meteohub,2013-10-06 00:37:00,
2013-10-05 19:42:00,47.1,42.3,29.78,NE,55,0.0,2.0,83,0.00,,,0.00,0.0,meteohub,2013-10-06 00:42:00,
2013-10-05 19:47:00,47.3,42.4,29.78,NE,55,0.0,2.0,83,0.00,,,0.00,0.0,meteohub,2013-10-06 00:47:00,
2013-10-05 19:52:00,47.3,42.4,29.79,NE,55,0.0,1.0,83,0.00,,,0.00,0.0,meteohub,2013-10-06 00:52:00,
2013-10-05 19:57:00,47.3,43.0,29.79,NE,55,0.0,0.0,85,0.00,,,0.00,0.0,meteohub,2013-10-06 00:57:00,
2013-10-05 20:02:00,47.3,43.3,29.79,NE,55,0.0,0.0,86,0.00,,,0.00,0.0,meteohub,2013-10-06 01:02:00,
2013-10-05 20:07:00,46.9,43.0,29.79,NE,55,0.0,0.0,86,0.00,,,0.00,0.0,meteohub,2013-10-06 01:07:00,
2013-10-05 20:12:00,46.9,43.3,29.79,NE,55,0.0,0.0,87,0.00,,,0.00,0.0,meteohub,2013-10-06 01:12:00,
2013-10-05 20:17:00,46.9,43.0,29.79,NE,55,0.0,0.0,86,0.00,,,0.00,0.0,meteohub,2013-10-06 01:17:00,
2013-10-05 20:22:00,46.9,43.0,29.78,NE,55,0.0,0.0,86,0.00,,,0.00,0.0,meteohub,2013-10-06 01:22:00,
2013-10-05 20:27:00,46.9,43.0,29.79,NE,55,0.0,0.0,86,0.00,,,0.00,0.0,meteohub,2013-10-06 01:27:00,
2013-10-05 20:32:00,46.9,43.0,29.79,NE,55,0.0,0.0,86,0.00,,,0.00,0.0,meteohub,2013-10-06 01:32:00,
2013-10-05 20:37:00,46.9,43.0,29.78,NE,55,0.0,0.0,86,0.00,,,0.00,0.0,meteohub,2013-10-06 01:37:00,
2013-10-05 20:42:00,46.9,43.0,29.78,NE,55,0.0,0.0,86,0.00,,,0.00,0.0,meteohub,2013-10-06 01:42:00,
2013-10-05 20:47:00,46.9,43.3,29.78,NE,55,0.0,0.0,87,0.00,,,0.00,0.0,meteohub,2013-10-06 01:47:00,
2013-10-05 20:52:00,46.9,43.3,29.78,NE,55,0.0,0.0,87,0.00,,,0.00,0.0,meteohub,2013-10-06 01:52:00,
2013-10-05 20:57:00,46.9,43.3,29.79,NE,55,0.0,0.0,87,0.00,,,0.00,0.0,meteohub,2013-10-06 01:57:00,
2013-10-05 21:02:00,46.9,43.3,29.78,NE,55,0.0,0.0,87,0.00,,,0.00,0.0,meteohub,2013-10-06 02:02:00,
2013-10-05 21:07:00,46.9,43.5,29.78,NE,55,0.0,0.0,88,0.00,,,0.00,0.0,meteohub,2013-10-06 02:07:00,
2013-10-05 21:12:00,46.9,43.5,29.78,NE,55,0.0,0.0,88,0.00,,,0.00,0.0,meteohub,2013-10-06 02:12:00,
2013-10-05 21:17:00,46.8,43.3,29.78,NE,55,0.0,0.0,88,0.00,,,0.00,0.0,meteohub,2013-10-06 02:17:00,
2013-10-05 21:22:00,46.8,43.3,29.78,NE,55,0.0,0.0,88,0.00,,,0.00,0.0,meteohub,2013-10-06 02:22:00,
2013-10-05 21:27:00,46.8,43.3,29.78,NE,55,0.0,0.0,88,0.00,,,0.00,0.0,meteohub,2013-10-06 02:27:00,
2013-10-05 21:32:00,46.8,43.3,29.78,NE,55,0.0,0.0,88,0.00,,,0.00,0.0,meteohub,2013-10-06 02:32:00,
2013-10-05 21:37:00,46.8,43.7,29.78,NE,55,0.0,0.0,89,0.00,,,0.00,0.0,meteohub,2013-10-06 02:37:00,
2013-10-05 21:42:00,46.8,43.7,29.78,NE,55,0.0,0.0,89,0.00,,,0.00,0.0,meteohub,2013-10-06 02:42:00,
2013-10-05 21:47:00,46.6,43.2,29.78,NE,55,0.0,0.0,88,0.00,,,0.00,0.0,meteohub,2013-10-06 02:47:00,
2013-10-05 21:52:00,46.6,43.2,29.78,NE,55,0.0,0.0,88,0.00,,,0.00,0.0,meteohub,2013-10-06 02:52:00,
2013-10-05 21:57:00,46.4,43.3,29.79,NE,55,0.0,0.0,89,0.00,,,0.00,0.0,meteohub,2013-10-06 02:57:00,
2013-10-05 22:02:00,46.2,43.2,29.79,NE,55,0.0,0.0,89,0.00,,,0.00,0.0,meteohub,2013-10-06 03:02:00,
2013-10-05 22:07:00,46.0,43.0,29.79,NE,55,0.0,0.0,89,0.00,,,0.00,0.0,meteohub,2013-10-06 03:07:00,
2013-10-05 22:12:00,46.0,43.3,29.79,NE,55,0.0,0.0,90,0.00,,,0.00,0.0,meteohub,2013-10-06 03:12:00,
2013-10-05 22:17:00,45.9,43.2,29.79,NE,55,0.0,1.0,90,0.00,,,0.00,0.0,meteohub,2013-10-06 03:17:00,
2013-10-05 22:22:00,45.9,43.2,29.79,NE,55,0.0,1.0,90,0.00,,,0.00,0.0,meteohub,2013-10-06 03:22:00,
2013-10-05 22:27:00,45.9,43.2,29.79,NE,55,0.0,1.0,90,0.00,,,0.00,0.0,meteohub,2013-10-06 03:27:00,
2013-10-05 22:32:00,45.9,43.2,29.79,NE,55,0.0,0.0,90,0.00,,,0.00,0.0,meteohub,2013-10-06 03:32:00,
2013-10-05 22:37:00,45.9,43.2,29.80,NE,55,0.0,0.0,90,0.00,,,0.00,0.0,meteohub,2013-10-06 03:37:00,
2013-10-05 22:42:00,45.9,43.2,29.80,NE,55,0.0,0.0,90,0.00,,,0.00,0.0,meteohub,2013-10-06 03:42:00,
2013-10-05 22:47:00,45.7,43.0,29.79,NE,55,0.0,0.0,90,0.00,,,0.00,0.0,meteohub,2013-10-06 03:47:00,
2013-10-05 22:52:00,45.7,43.0,29.79,NE,55,0.0,0.0,90,0.00,,,0.00,0.0,meteohub,2013-10-06 03:52:00,
2013-10-05 22:57:00,45.7,43.0,29.80,NE,55,0.0,0.0,90,0.00,,,0.00,0.0,meteohub,2013-10-06 03:57:00,
2013-10-05 23:01:00,45.7,43.0,29.80,NE,55,0.0,0.0,90,0.00,,,0.00,0.0,meteohub,2013-10-06 04:01:00,
2013-10-05 23:02:00,45.5,42.8,29.80,NE,55,0.0,0.0,90,0.00,,,0.00,0.0,meteohub,2013-10-06 04:02:00,
2013-10-05 23:03:00,45.5,42.8,29.80,NE,55,0.0,0.0,90,0.00,,,0.00,0.0,meteohub,2013-10-06 04:03:00,
2013-10-05 23:08:00,45.3,42.6,29.80,NE,55,0.0,0.0,90,0.00,,,0.00,0.0,meteohub,2013-10-06 04:08:00,
2013-10-05 23:13:00,45.3,42.6,29.80,NE,55,0.0,0.0,90,0.00,,,0.00,0.0,meteohub,2013-10-06 04:13:00,
2013-10-05 23:18:00,45.1,42.4,29.80,NE,55,0.0,0.0,90,0.00,,,0.00,0.0,meteohub,2013-10-06 04:18:00,
2013-10-05 23:23:00,45.1,42.6,29.80,NE,55,0.0,0.0,91,0.00,,,0.00,0.0,meteohub,2013-10-06 04:23:00,
2013-10-05 23:28:00,45.0,42.4,29.80,NE,55,0.0,0.0,91,0.00,,,0.00,0.0,meteohub,2013-10-06 04:28:00,
2013-10-05 23:33:00,45.0,42.3,29.80,NE,55,0.0,0.0,90,0.00,,,0.00,0.0,meteohub,2013-10-06 04:33:00,
2013-10-05 23:38:00,45.0,42.4,29.80,NE,55,0.0,0.0,91,0.00,,,0.00,0.0,meteohub,2013-10-06 04:38:00,
2013-10-05 23:43:00,45.0,42.4,29.80,NE,55,0.0,0.0,91,0.00,,,0.00,0.0,meteohub,2013-10-06 04:43:00,
2013-10-05 23:48:00,45.0,42.4,29.79,NE,55,0.0,0.0,91,0.00,,,0.00,0.0,meteohub,2013-10-06 04:48:00,
2013-10-05 23:53:00,44.8,42.3,29.79,NE,55,0.0,0.0,91,0.00,,,0.00,0.0,meteohub,2013-10-06 04:53:00,
2013-10-05 23:58:00,44.8,42.6,29.79,NE,55,0.0,0.0,92,0.00,,,0.00,0.0,meteohub,2013-10-06 04:58:00,